JRR455 EPSY-EFHK

Flight info

Callsign JRR455
Flight time N/A
Altitude 37000
Route LUSUL DCT SUW DCT BOKSU DCT GUNTA DCT INTOR
Aircraft B738/M-SDGIRWY/S

Departure

Time N/A
Airport Olsztyn-Mazury Airport (EPSY)

Arrival

Time 2026-04-26 21:48
Airport Helsinki Vantaa Airport (EFHK)
Time Latitude Longitude Altitude Speed Heading
2026-04-26 21:08 56.68333 23.87350 37003 ft 406 kts
2026-04-26 21:08 56.73841 23.89457 37001 ft 406 kts
2026-04-26 21:09 56.79372 23.91573 37009 ft 407 kts
2026-04-26 21:09 56.84925 23.93710 37004 ft 405 kts
2026-04-26 21:10 56.90431 23.95833 36989 ft 407 kts
2026-04-26 21:10 56.95994 23.97984 37007 ft 408 kts
2026-04-26 21:11 57.01519 24.00131 36989 ft 408 kts
2026-04-26 21:11 57.07047 24.02280 36996 ft 407 kts
2026-04-26 21:12 57.12593 24.04447 36988 ft 408 kts
2026-04-26 21:12 57.18086 24.06600 36986 ft 406 kts
2026-04-26 21:13 57.23618 24.08770 36977 ft 410 kts
2026-04-26 21:13 57.29186 24.10963 36964 ft 409 kts
2026-04-26 21:14 57.34726 24.13153 36954 ft 408 kts
2026-04-26 21:14 57.40267 24.15349 36959 ft 409 kts
2026-04-26 21:15 57.45816 24.17557 36960 ft 409 kts
2026-04-26 21:15 57.51388 24.19778 36951 ft 411 kts
2026-04-26 21:16 57.56943 24.22001 36939 ft 411 kts
2026-04-26 21:16 57.62495 24.24229 36931 ft 411 kts
2026-04-26 21:17 57.68046 24.26461 36916 ft 412 kts
2026-04-26 21:17 57.73668 24.28728 36926 ft 412 kts
2026-04-26 21:18 57.79230 24.30981 36911 ft 413 kts
2026-04-26 21:18 57.84835 24.33259 36919 ft 413 kts
2026-04-26 21:19 57.90427 24.35538 36920 ft 413 kts
2026-04-26 21:19 57.96001 24.37818 36917 ft 413 kts
2026-04-26 21:20 58.01591 24.40115 36913 ft 414 kts
2026-04-26 21:20 58.07207 24.42428 36911 ft 415 kts
2026-04-26 21:21 58.12827 24.44746 36908 ft 417 kts
2026-04-26 21:21 58.18452 24.47076 36902 ft 414 kts
2026-04-26 21:22 58.24093 24.49422 36916 ft 416 kts
2026-04-26 21:22 58.29704 24.51761 36918 ft 415 kts
2026-04-26 21:23 58.38147 24.55293 36916 ft 417 kts
2026-04-26 21:23 58.43832 24.57684 36920 ft 417 kts
2026-04-26 21:24 58.49433 24.60047 36911 ft 417 kts
2026-04-26 21:24 58.55110 24.62447 36791 ft 417 kts
2026-04-26 21:25 58.57916 24.63641 36460 ft 412 kts
2026-04-26 21:25 58.60696 24.64825 35980 ft 410 kts
2026-04-26 21:25 58.63469 24.66008 35366 ft 411 kts
2026-04-26 21:25 58.66239 24.67188 34695 ft 413 kts
2026-04-26 21:26 58.69031 24.68378 33990 ft 415 kts
2026-04-26 21:26 58.71864 24.69588 33277 ft 418 kts
2026-04-26 21:26 58.74688 24.70795 32662 ft 420 kts
2026-04-26 21:26 58.77506 24.72005 32164 ft 417 kts
2026-04-26 21:27 58.80327 24.73221 31645 ft 415 kts
2026-04-26 21:27 58.83118 24.74425 31171 ft 412 kts
2026-04-26 21:27 58.85928 24.75640 30673 ft 410 kts
2026-04-26 21:27 58.88663 24.76824 30128 ft 408 kts
2026-04-26 21:28 58.91428 24.78023 29589 ft 404 kts
2026-04-26 21:28 58.94111 24.79186 29052 ft 401 kts
2026-04-26 21:28 58.96830 24.80366 28498 ft 396 kts
2026-04-26 21:28 58.99477 24.81518 28004 ft 391 kts
2026-04-26 21:29 59.02103 24.82661 27497 ft 386 kts
2026-04-26 21:29 59.04704 24.83796 26988 ft 380 kts
2026-04-26 21:29 59.07250 24.84910 26517 ft 374 kts
2026-04-26 21:29 59.09783 24.86017 26022 ft 369 kts
2026-04-26 21:30 59.12246 24.87095 25549 ft 365 kts
2026-04-26 21:30 59.14705 24.88173 25066 ft 361 kts
2026-04-26 21:30 59.17136 24.89240 24583 ft 357 kts
2026-04-26 21:30 59.18737 24.89944 24259 ft 354 kts
2026-04-26 21:31 59.21897 24.91334 23629 ft 348 kts
2026-04-26 21:31 59.24044 24.92281 23201 ft 343 kts
2026-04-26 21:31 59.26350 24.93299 22758 ft 338 kts
2026-04-26 21:31 59.28625 24.94305 22304 ft 334 kts
2026-04-26 21:32 59.30867 24.95296 21844 ft 330 kts
2026-04-26 21:32 59.33081 24.96279 21394 ft 326 kts
2026-04-26 21:32 59.35283 24.97257 20971 ft 321 kts
2026-04-26 21:32 59.37429 24.98212 20525 ft 317 kts
2026-04-26 21:33 59.39543 24.99151 20103 ft 313 kts
2026-04-26 21:33 59.41662 25.00095 19663 ft 310 kts
2026-04-26 21:33 59.43768 25.01032 19235 ft 314 kts 10°
2026-04-26 21:33 59.45892 25.01977 18788 ft 315 kts 10°
2026-04-26 21:34 59.48016 25.02927 18342 ft 311 kts 10°
2026-04-26 21:34 59.50109 25.03867 17905 ft 307 kts 10°
2026-04-26 21:34 59.52144 25.04782 17496 ft 303 kts 10°
2026-04-26 21:34 59.54193 25.05703 17056 ft 300 kts 10°
2026-04-26 21:35 59.56226 25.06617 16640 ft 300 kts 10°
2026-04-26 21:35 59.58243 25.07522 16206 ft 303 kts 10°
2026-04-26 21:35 59.60297 25.08447 15766 ft 300 kts 10°
2026-04-26 21:35 59.62304 25.09354 15352 ft 296 kts 11°
2026-04-26 21:36 59.64301 25.10258 14934 ft 293 kts 11°
2026-04-26 21:36 59.65612 25.10852 14661 ft 291 kts 11°
2026-04-26 21:36 59.68218 25.11959 14216 ft 287 kts
2026-04-26 21:36 59.70162 25.12205 14103 ft 273 kts 359°
2026-04-26 21:37 59.72028 25.12113 13991 ft 261 kts 358°
2026-04-26 21:37 59.73808 25.12012 13728 ft 256 kts 358°
2026-04-26 21:37 59.75568 25.11999 13357 ft 255 kts 360°
2026-04-26 21:37 59.77333 25.12059 12981 ft 254 kts
2026-04-26 21:38 59.79079 25.12148 12617 ft 252 kts
2026-04-26 21:38 59.80825 25.12239 12225 ft 251 kts
2026-04-26 21:38 59.82562 25.12327 11853 ft 250 kts
2026-04-26 21:38 59.84306 25.12412 11459 ft 249 kts
2026-04-26 21:39 59.86024 25.12494 11079 ft 248 kts
2026-04-26 21:39 59.87747 25.12576 10689 ft 248 kts
2026-04-26 21:39 59.89455 25.12658 10330 ft 246 kts
2026-04-26 21:39 59.91151 25.12739 10011 ft 243 kts
2026-04-26 21:40 59.92838 25.12820 9641 ft 242 kts
2026-04-26 21:40 59.94510 25.12901 9258 ft 242 kts
2026-04-26 21:40 59.96189 25.12982 8777 ft 241 kts
2026-04-26 21:40 59.97863 25.13062 8280 ft 238 kts
2026-04-26 21:41 59.99495 25.13141 7780 ft 236 kts
2026-04-26 21:41 60.01128 25.13219 7261 ft 234 kts
2026-04-26 21:41 60.02746 25.13298 6754 ft 232 kts
2026-04-26 21:41 60.04350 25.13376 6247 ft 229 kts
2026-04-26 21:42 60.05925 25.13453 5720 ft 227 kts
2026-04-26 21:42 60.07486 25.13528 5212 ft 223 kts
2026-04-26 21:42 60.08994 25.13601 4864 ft 214 kts
2026-04-26 21:42 60.10452 25.13671 4525 ft 206 kts
2026-04-26 21:43 60.11859 25.13740 4226 ft 199 kts
2026-04-26 21:43 60.13209 25.13806 3973 ft 190 kts
2026-04-26 21:43 60.14507 25.13869 3860 ft 180 kts
2026-04-26 21:43 60.15733 25.13870 3720 ft 173 kts 355°
2026-04-26 21:44 60.16872 25.13146 3524 ft 172 kts 335°
2026-04-26 21:44 60.17879 25.11946 3384 ft 165 kts 335°
2026-04-26 21:44 60.18855 25.10895 3239 ft 155 kts 338°
2026-04-26 21:44 60.19814 25.09941 2861 ft 157 kts 337°
2026-04-26 21:45 60.20811 25.08940 2343 ft 164 kts 335°
2026-04-26 21:45 60.21813 25.07910 2099 ft 159 kts 335°
2026-04-26 21:45 60.22772 25.06927 1964 ft 150 kts 335°
2026-04-26 21:45 60.23672 25.06014 1827 ft 144 kts 335°
2026-04-26 21:46 60.24549 25.05122 1559 ft 137 kts 334°
2026-04-26 21:46 60.25319 25.04341 1366 ft 131 kts 334°
2026-04-26 21:46 60.25875 25.03771 1203 ft 130 kts 334°
2026-04-26 21:46 60.26682 25.02953 1020 ft 129 kts 334°
2026-04-26 21:47 60.27494 25.02149 850 ft 130 kts 334°
2026-04-26 21:47 60.28305 25.01313 737 ft 131 kts 330°
2026-04-26 21:47 60.29116 25.00456 630 ft 132 kts 333°
2026-04-26 21:47 60.29940 24.99634 433 ft 133 kts 331°
2026-04-26 21:48 60.30756 24.98774 219 ft 134 kts 331°
2026-04-26 21:48 60.31525 24.97980 190 ft 102 kts 332°
2026-04-26 21:48 60.31904 24.97597 190 ft 46 kts 333°
2026-04-26 21:48 60.32177 24.97327 190 ft 45 kts 333°
2026-04-26 21:49 60.32396 24.97074 190 ft 19 kts 289°
2026-04-26 21:49 60.32338 24.96862 190 ft 17 kts 223°
2026-04-26 21:49 60.32239 24.96866 190 ft 14 kts 230°
2026-04-26 21:49 60.32166 24.96827 190 ft 12 kts 157°
2026-04-26 21:50 60.32093 24.96904 190 ft 11 kts 149°
2026-04-26 21:50 60.32045 24.96961 190 ft 11 kts 149°
2026-04-26 21:50 60.31978 24.96898 190 ft 0 kts 216°